Weather History for Cortez, CO

Change the Weather History Date:

Monday, September 5, 2011

  Actual Average Record
Temperature  
Mean Temperature 71 °F 64 °F  
Max Temperature 88 °F 81 °F 90 °F (2002)
Min Temperature 54 °F 47 °F 34 °F (2004)
Degree Days  
Heating Degree Days 0 2  
Month to date heating degree days 9  
Since 1 July heating degree days 21  
Cooling Degree Days 6 1  
Month to date cooling degree days 8  
Year to date cooling degree days 417  
Growing Degree Days 21 (Base 50)    
Moisture  
Dew Point 45 °F    
Average Humidity 40    
Maximum Humidity 75    
Minimum Humidity 17    
Precipitation  
Precipitation 0.00 in 0.05 in 0.03 in (2000)
Month to date precipitation 0.24  
Year to date precipitation 8.68  
Sea Level Pressure  
Sea Level Pressure 29.99 in    
Wind  
Wind Speed 5 mph (SSW)    
Max Wind Speed 13 mph    
Max Gust Speed 18 mph    
Visibility 10 miles    
Events Thunderstorm    
T = Trace of Precipitation, MM = Missing Value Source: NWS Daily Summary

Daily Weather History Graph

Daily Weather History Graph

Search for Another Location

Airport:

Trip Planner

Search our weather history database for the weather conditions in past years. The results will help you decide how hot, cold, wet, or windy it might be!

Date:

Astronomy

Sep. 05, 2011 Rise Set
Actual Time 6:48 AM MDT 7:37 PM MDT
Civil Twilight 6:21 AM MDT 8:04 PM MDT
Nautical Twilight 5:50 AM MDT 8:35 PM MDT
Astronomical Twilight 5:17 AM MDT 9:07 PM MDT
Moon 3:20 PM MDT (9/5) 12:13 AM MDT (9/5)
Length of Visible Light 13h 42m
Length of Day
12h 49m
First Quarter, 61% of the Moon is Illuminated
Sep 5
First Quarter
Sep 12
Full
Sep 20
Last Quarter
Sep 27
New
Oct 3
First Quarter

Hourly Weather History & Observations

Time (MDT) Temp. Dew Point Humidity Pressure Visibility Wind Dir Wind Speed Gust Speed Precip Events Conditions
12:53 AM 66.0 °F 46.0 °F 48% 30.00 in 10.0 mi Variable 4.6 mph - N/A   Clear
2:53 AM 61.0 °F 46.0 °F 58% 30.01 in 10.0 mi NW 5.8 mph - N/A   Clear
3:53 AM 57.9 °F 46.0 °F 65% 30.02 in 10.0 mi Calm Calm - N/A   Clear
5:53 AM 55.9 °F 46.0 °F 69% 30.04 in 10.0 mi East 4.6 mph - N/A   Clear
6:53 AM 54.0 °F 46.0 °F 75% 30.05 in 10.0 mi ENE 3.5 mph - N/A   Clear
8:53 AM 66.0 °F 48.9 °F 54% 30.06 in 10.0 mi Calm Calm - N/A   Clear
9:53 AM 71.1 °F 46.9 °F 42% 30.04 in 10.0 mi Calm Calm - N/A   Clear
10:53 AM 75.0 °F 48.0 °F 38% 30.03 in 10.0 mi SW 5.8 mph - N/A   Clear
11:53 AM 80.1 °F 46.0 °F 30% 29.99 in 10.0 mi SSW 8.1 mph - N/A   Clear
12:53 PM 84.0 °F 45.0 °F 25% 29.96 in 10.0 mi South 5.8 mph 16.1 mph N/A   Clear
1:53 PM 82.9 °F 46.0 °F 27% 29.95 in 10.0 mi SW 11.5 mph - N/A   Clear
2:53 PM 84.9 °F 44.1 °F 24% 29.92 in 10.0 mi WSW 8.1 mph 18.4 mph N/A   Clear
3:53 PM 88.0 °F 39.0 °F 18% 29.89 in 10.0 mi SW 12.7 mph 17.3 mph N/A   Clear
4:53 PM 86.0 °F 36.0 °F 17% 29.89 in 10.0 mi SW 10.4 mph - N/A   Clear
6:53 PM 75.9 °F 41.0 °F 29% 29.95 in 10.0 mi South 9.2 mph - N/A Thunderstorm Partly Cloudy
7:12 PM 77.0 °F 39.2 °F 26% 30.15 in 10.0 mi Calm Calm - N/A   Mostly Cloudy
7:53 PM 73.9 °F 43.0 °F 33% 29.95 in 10.0 mi East 5.8 mph - N/A   Mostly Cloudy
8:53 PM 73.0 °F 46.9 °F 39% 29.94 in 10.0 mi ENE 9.2 mph - N/A   Mostly Cloudy
9:53 PM 72.0 °F 46.0 °F 40% 29.97 in 10.0 mi NW 8.1 mph - N/A   Overcast
10:53 PM 70.0 °F 48.0 °F 46% 30.00 in 10.0 mi SW 5.8 mph - N/A   Overcast
11:53 PM 69.1 °F 48.0 °F 47% 29.99 in 10.0 mi Calm Calm - N/A   Scattered Clouds